Volver al catálogo

STARLINK-31772

ActivoComunicacionesVLEO
NORAD 59430·PAYLOAD·🇺🇸 United States

Lanzado Apr 7, 2024 desde Vandenberg Space Force Base

Loading…

Próximos Pases (próximas 24 horas)

TLE

ActualizadoSource: CelesTrak SupGP

Época: Sep 14, 2026, 20:38 UTC

1 59430C 24065K   26257.86020833 -.00044924  00000+0 -13273-2 0  2579
2 59430  53.1567 120.1338 0001314  92.3418 231.2921 15.34412636    10

Sigue STARLINK-31772 en tiempo real con AllMySat

Download on the App Store